Regional Weather Roundup
Issued by NWS

Home | Current Version | Previous Version | Graphics & Text | Print | Product List | Glossary On
Versions: 1 2 3 4 5 6 7 8 9 10 11 12 13 14 15 16 17 18 19 20 21 22 23 24 25 26 27 28 29 30 31 32 33 34 35 36 37 38 39 40 41 42 43 44 45 46 47 48 49 50
000
ASUS43 KDMX 250306
RWRIA

WEATHER ROUNDUP FOR IOWA
NATIONAL WEATHER SERVICE DES MOINES IA
1000 PM CDT FRI MAR 24 2017

NOTE: "FAIR" INDICATES FEW OR NO CLOUDS BELOW 12,000 FEET WITH NO
SIGNIFICANT WEATHER AND/OR OBSTRUCTIONS TO VISIBILITY.

* - THESE STATIONS ARE NOT NWS STATIONS...THUS NOT UNDER NWS
QUALITY CONTROL.  THEY ALSO DO NOT REPORT WEATHER SUCH
AS PRECIPITATION OR FOG.

IAZ001>003-012>014-020>022-031>034-043>046-250400-
   NORTHWEST IOWA

CITY           SKY/WX    TMP DP  RH WIND       PRES   REMARKS
CARROLL *      RAIN      41  41 100 NE17      30.02S
CHEROKEE *     CLOUDY    40  39  96 NE13G20   30.06F FOG     WCI  33
LE MARS *      CLOUDY    41  37  87 NE17      30.09S
ORANGE CITY *  CLOUDY    37  37 100 NE10      30.09S FOG     WCI  30
SHELDON *      CLOUDY    37  37 100 NE16      30.09R FOG     WCI  28
SIOUX CITY     LGT RAIN  41  40  96 NE13      30.07R
SPENCER        CLOUDY    39  37  92 NE17      30.09S WCI  30
STORM LAKE *   MIX PCPN  39  39 100 NE21      30.04F WCI  29
$$

IAZ055>058-069>071-079>083-090>094-250400-
   SOUTHWEST IOWA

CITY           SKY/WX    TMP DP  RH WIND       PRES   REMARKS
ATLANTIC *     CLOUDY    43  41  93 NE15G23   29.97S
AUDUBON *      DRIZZLE   41  37  87 NE12G20   30.00S
CLARINDA *     CLOUDY    45  45 100 N14       29.97R FOG
COUNCIL BLFS * RAIN      41  41 100 NE17G23   29.99R
CRESTON *      LGT RAIN  43  43 100 NE23G29   29.94R
HARLAN  *      MIX PCPN  41  41 100 NE16G24   30.01F
LAMONI         RAIN      49  48  97 NE15      29.91R FOG
RED OAK *      LGT RAIN  43  43 100 NE18      29.96R
SHENANDOAH *   MIX PCPN  45  43  93 NE17      29.97R
$$

IAZ047>049-059>061-072>074-084-250400-
   CENTRAL IOWA

CITY           SKY/WX    TMP DP  RH WIND       PRES   REMARKS
AMES           CLOUDY    42  42 100 NE15      30.01R
ANKENY *       CLOUDY    43  41  93 NE18      30.00R
BOONE *        CLOUDY    41  41 100 NE20      29.99S
CHARITON *     LGT RAIN  46  46 100 N16       29.92S
DES MOINES     CLOUDY    45  42  89 NE18      29.98R
GRINNELL*      LGT RAIN  43  42  95 N15G21    29.98F
MARSHALLTOWN   CLOUDY    42  40  92 NE24      30.00S
NEWTON *       CLOUDY    43  41  93 NE18      29.97S FOG
PELLA *        DRIZZLE   45  45  98 NE10G17   29.97R
PERRY *        CLOUDY    42  41  93 NE13G20   30.00S
$$

IAZ004>006-015-016-023>025-035-036-250400-
   NORTH CENTRAL IOWA

CITY           SKY/WX    TMP DP  RH WIND       PRES   REMARKS
ALGONA *       CLOUDY    41  41 100 NE18G24   30.06F
CLARION *      CLOUDY    41  41 100 NE21G28   30.04S
ESTHERVILLE    CLOUDY    38  37  97 N17       30.09F WCI  28
FORT DODGE *   CLOUDY    39  36  87 NE13      30.05R WCI  32
MASON CITY     CLOUDY    40  37  89 NE16      30.09R WCI  31
FOREST CITY *  CLOUDY    39  37  93 NE14G23   30.08R WCI  31
WEBSTER CITY * MIX PCPN  41  39  93 NE13G22   30.01S
IOWA FALLS *   CLOUDY    41  40  95 NE20G25   30.02F
$$

IAZ007>011-017>019-026>030-037>042-050>054-066-250400-
   NORTHEAST IOWA

CITY           SKY/WX    TMP DP  RH WIND       PRES   REMARKS
CEDAR RAPIDS   CLOUDY    48  48 100 N13       29.98S FOG
CHARLES CITY * LGT RAIN  41  41 100 NE17      30.07F
CLINTON *      LGT RAIN  55  54  96 E9        30.00S
DECORAH *      LGT RAIN  39  37  93 NE10G17   30.08R WCI  32
DUBUQUE        CLOUDY    44  42  93 NE18      30.03R FOG
MONTICELLO *   LGT RAIN  46  45  93 NE14      30.00F
OELWEIN *      CLOUDY    41  41 100 NE21G26   30.04F
WATERLOO       CLOUDY    41  39  93 NE14      30.03F
$$

IAZ064-065-067-068-078-250400-
   EAST CENTRAL IOWA

CITY           SKY/WX    TMP DP  RH WIND       PRES   REMARKS
DAVENPORT      LGT RAIN  54  53  97 SE7       30.00R FOG
IOWA CITY      CLOUDY    55  53  93 NE6       29.98S FOG
MUSCATINE *    CLOUDY    55  55 100 SE9       29.98F FOG
QUAD CITIES    LGT RAIN  56  54  93 E7        29.99R FOG
$$

IAZ062-063-075>077-085>089-095>099-250400-
   SOUTHEAST IOWA

CITY           SKY/WX    TMP DP  RH WIND       PRES   REMARKS
BURLINGTON     CLOUDY    56  56 100 NE7       29.96F FOG
FAIRFIELD *    CLOUDY    54  54 100 E12       29.93F FOG
FORT MADISON * FOG       55  52  88 NE6       29.96F VSB 1
KEOKUK *       LGT RAIN  55  55 100 NE7       29.92F
OSKALOOSA *    CLOUDY    48  47  97 NE15      29.95F FOG
CENTERVILLE *  MOCLDY    55  55 100 CALM      29.92R
OTTUMWA        LGT RAIN  51  51 100 NE13      29.93F FOG
WASHINGTON *   LGT RAIN  54  54 100 SE5       29.97S
$$

ABBREVIATIONS USED IN REMARKS
   TC - TEMPERATURES IN CELSIUS
  WCI - WIND CHILL INDEX
   HX - HEAT INDEX
  VSB - VISIBILITY
$$




USA.gov is the U.S. government's official web portal to all federal, state and local government web resources and services.